Regional Weather Roundup
Issued by NWS

Home | Current Version | Previous Version | Graphics & Text | Print | Product List | Glossary Off
Versions: 1 2 3 4 5 6 7 8 9 10 11 12 13 14 15 16 17 18 19 20 21 22 23 24 25 26 27 28 29 30 31 32 33 34 35 36 37 38 39 40 41 42 43 44 45 46 47 48 49 50

000
ASUS43 KTOP 262008
RWRKS

WEATHER ROUNDUP FOR KANSAS
NATIONAL WEATHER SERVICE GOODLAND KS
300 PM CDT THU MAR 26 2015

NOTE:  "FAIR" INDICATES FEW OR NO CLOUDS BELOW 12,000 FEET WITH NO
SIGNIFICANT WEATHER AND/OR OBSTRUCTIONS TO VISIBILITY.

KSZ001>006-013>018-027>032-041>047-262100-
NORTHWEST KANSAS

CITY           SKY/WX    TMP DP  RH WIND       PRES   REMARKS
GOODLAND       PTSUNNY   59  24  26 NW21G31   30.09F
HAYS           FAIR      59  34  38 SW16G23   30.09F
HILL CITY      LGT RAIN  59  33  37 W12       30.05F
RUSSELL        MOSUNNY   56  30  37 SW14G21   30.08F
$$

KSZ061>065-074>080-084>089-262100-
SOUTHWEST KANSAS

CITY           SKY/WX    TMP DP  RH WIND       PRES   REMARKS
DODGE CITY     SUNNY     61  30  31 W15G28    30.12F
ELKHART          N/A     61  29  29 W12         N/A
GARDEN CITY    PTSUNNY   61  29  29 W22G33    30.10F
GREAT BEND     SUNNY     57  30  35 W12       30.12F
LIBERAL        SUNNY     63  34  34 W14G23    30.17F
PRATT          SUNNY     57  28  33 W9G16     30.16F
$$

KSZ066>073-081>083-090>101-262100-
SOUTHEAST KANSAS

CITY           SKY/WX    TMP DP  RH WIND       PRES   REMARKS
CHANUTE        SUNNY     53  28  38 NW10      30.15F
COFFEYVILLE    SUNNY     54  29  38 N14G20    30.15F
HUTCHINSON     SUNNY     56  29  35 W7        30.15F
MEDICINE LODGE   N/A     59  30  33 W7        30.16F
NEWTON         SUNNY     52  28  40 NW8       30.17F
PARSONS        SUNNY     54  30  40 N12G18    30.16F
WICHITA INTL   MOSUNNY   54  29  38 W9        30.17F
WICHITA JABRA  SUNNY     53  29  39 NW8       30.16F
WICHITA MCCONL SUNNY     54  28  37 VRB7      30.16F
WINFIELD       SUNNY     56  26  31 N12       30.17F
$$

KSZ007>012-019>026-033>040-048>060-102>105-262100-
NORTHEAST KANSAS

CITY           SKY/WX    TMP DP  RH WIND       PRES   REMARKS
CONCORDIA      MOSUNNY   52  26  36 CALM      30.10F
EMPORIA        SUNNY     52  24  33 N10       30.14F
LAWRENCE       SUNNY     51  27  39 NW8G20    30.15F
MANHATTAN      SUNNY     53  26  35 VRB3      30.13F
MARYSVILLE     MOSUNNY   46  28  49 CALM      30.11F
OLATHE IND     SUNNY     49  27  42 NW13G18   30.15F
OLATHE EXE     SUNNY     50  26  39 NW12      30.13F
SALINA         SUNNY     55  29  36 VRB5      30.14F
TOPEKA BILLARD SUNNY     52  29  41 VRB7      30.15F
TOPEKA FORBES  SUNNY     51  26  37 N7        30.14F
$$


USA.gov is the U.S. government's official web portal to all federal, state and local government web resources and services.